Location: Unspecified
(0.0000°N, 0.0000°E)
Time: 01:33:59
(UTC+00:00)

A-11 Canister half - All Passes

Search period start: 23 April 2018 00:00
Search period end: 03 May 2018 00:00
Orbit: 1517 x 1683 km, 47.2° (Epoch: 22 April)

Date Brightness Start Highest point End Pass type
(mag) Time Alt. Az. Time Alt. Az. Time Alt. Az.
23 Apr - 01:31:22 10° S 01:38:37 25° SE 01:45:48 10° E visible
23 Apr - 03:34:14 10° SW 03:43:21 65° NW 03:52:35 10° NNE visible
23 Apr - 05:47:49 10° NW 05:48:47 10° NW 05:49:45 10° NW daylight
23 Apr - 14:19:46 10° NNW 14:29:41 59° NE 14:39:33 10° SE daylight
23 Apr - 16:26:00 10° WNW 16:34:37 32° SW 16:43:11 10° S daylight
24 Apr - 01:08:47 10° S 01:15:41 23° SE 01:22:31 10° E visible
24 Apr - 03:11:16 10° SW 03:20:28 70° NW 03:29:45 10° NNE visible
24 Apr - 05:22:52 10° WNW 05:25:47 12° NW 05:28:43 10° NNW visible
24 Apr - 13:56:56 10° NNW 14:06:44 54° NE 14:16:31 10° SE daylight
24 Apr - 16:02:47 10° WNW 16:11:39 35° SW 16:20:29 10° SSE daylight
25 Apr - 00:46:15 10° S 00:52:44 21° SE 00:59:10 10° E visible
25 Apr - 02:48:21 10° SW 02:57:35 77° NW 03:06:53 10° NE visible
25 Apr - 04:58:51 10° WNW 05:02:47 13° NW 05:06:46 10° NNW visible
25 Apr - 13:34:08 10° NNW 13:43:48 50° NE 13:53:27 10° ESE daylight
25 Apr - 15:39:36 10° WNW 15:48:42 38° SW 15:57:46 10° SSE daylight
26 Apr - 00:23:45 10° S 00:29:48 19° SE 00:35:46 10° E night (unlit)
26 Apr - 02:25:26 10° SW 02:34:42 83° NW 02:44:01 10° NE visible
26 Apr - 04:35:06 10° WNW 04:39:48 15° NW 04:44:34 10° NNW visible
26 Apr - 13:11:21 10° NNW 13:20:51 46° NE 13:30:22 10° ESE daylight
26 Apr - 15:16:26 10° WNW 15:25:45 41° SW 15:35:02 10° SSE daylight
27 Apr - 00:01:19 10° S 00:06:50 17° SE 00:12:17 10° E night (unlit)
27 Apr - 02:02:31 10° SW 02:11:50 89° NW 02:21:07 10° NE visible
27 Apr - 04:11:30 10° W 04:16:50 17° NW 04:22:14 10° N visible
27 Apr - 12:48:35 10° NNW 12:57:54 42° NE 13:07:15 10° ESE daylight
27 Apr - 14:53:18 10° WNW 15:02:47 45° SW 15:12:16 10° SSE daylight
27 Apr - 23:38:59 10° SSE 23:43:52 15° SE 23:48:42 10° ESE night (unlit)
28 Apr - 01:39:38 10° SW 01:48:57 84° SE 01:58:14 10° NE visible
28 Apr - 03:48:00 10° W 03:53:53 18° NW 03:59:49 10° N visible
28 Apr - 12:25:51 10° NNW 12:34:57 38° NE 12:44:06 10° ESE daylight
28 Apr - 14:30:13 10° WNW 14:39:51 49° SW 14:49:29 10° SSE daylight
28 Apr - 23:16:45 10° SSE 23:20:53 13° SE 23:24:58 10° ESE night (unlit)
29 Apr - 01:16:46 10° SW 01:26:04 78° SE 01:35:19 10° NE visible
29 Apr - 03:24:35 10° W 03:30:55 20° NW 03:37:20 10° N visible
29 Apr - 12:03:08 10° NNW 12:12:00 35° NE 12:20:55 10° ESE daylight
29 Apr - 14:07:08 10° NW 14:16:54 53° SW 14:26:41 10° SSE daylight
29 Apr - 22:54:46 10° SSE 22:57:53 12° SE 23:01:00 10° ESE night (unlit)
30 Apr - 00:53:54 10° SSW 01:03:11 71° SE 01:12:23 10° NE visible
30 Apr - 03:01:14 10° W 03:07:59 23° NW 03:14:48 10° N visible
30 Apr - 11:40:26 10° N 11:49:02 32° NE 11:57:42 10° ESE daylight
30 Apr - 13:44:06 10° NW 13:53:57 58° SW 14:03:52 10° SSE daylight
30 Apr - 22:33:23 10° SSE 22:34:54 10° SE 22:36:23 10° SE night (unlit)
01 May - 00:31:05 10° SSW 00:40:19 66° SE 00:49:26 10° NE visible
01 May - 02:37:56 10° W 02:45:03 25° NW 02:52:14 10° N visible
01 May - 11:17:46 10° N 11:26:05 29° NE 11:34:27 10° ESE daylight
01 May - 13:21:05 10° NW 13:31:01 63° SW 13:41:02 10° SSE daylight
01 May - 15:34:27 10° WSW 15:36:42 11° SW 15:38:57 10° SSW daylight
02 May - 00:08:15 10° SSW 00:17:25 60° SE 00:26:28 10° NE night (unlit)
02 May - 02:14:41 10° WSW 02:22:08 27° NW 02:29:37 10° N visible
02 May - 10:55:08 10° N 11:03:07 27° NE 11:11:09 10° ESE daylight
02 May - 12:58:04 10° NW 13:08:05 68° SW 13:18:10 10° SSE daylight
02 May - 15:09:56 10° WSW 15:13:39 12° SW 15:17:22 10° SSW daylight
